Weather History for Gulkana, AK

Change the Weather History Date:

Thursday, September 12, 2013

  Actual Average Record
Temperature  
Mean Temperature 52 °F -  
Max Temperature 61 °F 56 °F 71 °F (1956)
Min Temperature 43 °F 35 °F 15 °F (1992)
Degree Days  
Heating Degree Days 13    
Growing Degree Days 2 (Base 50)    
Moisture  
Dew Point 39 °F    
Average Humidity 66    
Maximum Humidity 89    
Minimum Humidity 34    
Precipitation  
Precipitation 0.00 in - - ()
Sea Level Pressure  
Sea Level Pressure 29.97 in    
Wind  
Wind Speed 11 mph (SSE)    
Max Wind Speed 17 mph    
Max Gust Speed 24 mph    
Visibility 10 miles    
Events      
Averages and records for this station are not official NWS values.
T = Trace of Precipitation, MM = Missing Value Source: NWS Daily Summary

Daily Weather History Graph

Daily Weather History Graph

Search for Another Location

Airport:

Trip Planner

Search our weather history database for the weather conditions in past years. The results will help you decide how hot, cold, wet, or windy it might be!

Date:

Astronomy

Sep. 12, 2013 Rise Set
Actual Time 7:00 AM AKDT 8:13 PM AKDT
Civil Twilight 6:14 AM AKDT 8:59 PM AKDT
Nautical Twilight 5:16 AM AKDT 9:56 PM AKDT
Astronomical Twilight 4:07 AM AKDT 11:04 PM AKDT
Moon 4:41 PM AKDT (9/12) 11:16 PM AKDT (9/12)
Length of Visible Light 14h 44m
Length of Day
13h 12m
First Quarter, 51% of the Moon is Illuminated
Sep 12
First Quarter
Sep 19
Full
Sep 26
Last Quarter
Oct 4
New
Oct 11
First Quarter

Hourly Weather History & Observations

Time (AKDT) Temp. Windchill Dew Point Humidity Pressure Visibility Wind Dir Wind Speed Gust Speed Precip Events Conditions
12:53 AM 44.1 °F 40.1 °F 39.9 °F 85% 29.93 in 10.0 mi South 6.9 mph - N/A   Clear
1:53 AM 45.0 °F 39.7 °F 39.9 °F 82% 29.94 in 10.0 mi South 10.4 mph - N/A   Clear
2:53 AM 44.1 °F 39.0 °F 39.9 °F 85% 29.95 in 10.0 mi South 9.2 mph - N/A   Clear
3:53 AM 44.1 °F 38.6 °F 39.9 °F 85% 29.96 in 10.0 mi SSE 10.4 mph - N/A   Clear
4:53 AM 43.0 °F 37.7 °F 39.9 °F 89% 29.98 in 10.0 mi SSE 9.2 mph - N/A   Clear
5:53 AM 43.0 °F 37.2 °F 39.9 °F 89% 29.99 in 10.0 mi South 10.4 mph - N/A   Clear
6:53 AM 43.0 °F 37.7 °F 39.9 °F 89% 30.00 in 10.0 mi SSE 9.2 mph - N/A   Scattered Clouds
7:53 AM 44.1 °F 39.5 °F 41.0 °F 89% 30.00 in 10.0 mi SSE 8.1 mph - N/A   Partly Cloudy
8:53 AM 48.0 °F - 41.0 °F 77% 30.00 in 10.0 mi SSE 11.5 mph - N/A   Partly Cloudy
9:53 AM 51.1 °F - 41.0 °F 68% 30.00 in 10.0 mi SSE 12.7 mph - N/A   Clear
10:53 AM 52.0 °F - 41.0 °F 66% 30.00 in 10.0 mi South 13.8 mph - N/A   Clear
11:53 AM 57.0 °F - 41.0 °F 55% 29.99 in 10.0 mi SSE 15.0 mph 21.9 mph N/A   Clear
12:53 PM 57.9 °F - 41.0 °F 53% 30.00 in 10.0 mi SSE 12.7 mph 23.0 mph N/A   Partly Cloudy
1:53 PM 57.0 °F - 37.9 °F 49% 29.99 in 10.0 mi SSE 13.8 mph 24.2 mph N/A   Partly Cloudy
2:53 PM 57.9 °F - 37.9 °F 47% 29.99 in 10.0 mi SSE 15.0 mph - N/A   Scattered Clouds
3:53 PM 60.1 °F - 39.0 °F 46% 29.97 in 10.0 mi SSE 17.3 mph 24.2 mph N/A   Mostly Cloudy
4:53 PM 59.0 °F - 35.1 °F 41% 29.96 in 10.0 mi South 13.8 mph 21.9 mph N/A   Clear
5:53 PM 57.9 °F - 36.0 °F 44% 29.95 in 10.0 mi South 13.8 mph - N/A   Clear
6:53 PM 55.0 °F - 37.0 °F 51% 29.96 in 10.0 mi South 11.5 mph - N/A   Partly Cloudy
7:53 PM 52.0 °F - 37.9 °F 59% 29.96 in 10.0 mi SSE 10.4 mph - N/A   Clear
8:53 PM 48.9 °F - 37.9 °F 66% 29.96 in 10.0 mi SSE 9.2 mph - N/A   Clear
9:53 PM 48.9 °F - 37.9 °F 66% 29.96 in 10.0 mi SSE 10.4 mph - N/A   Clear
10:53 PM 48.0 °F - 37.9 °F 68% 29.97 in 10.0 mi SSE 11.5 mph - N/A   Clear
11:53 PM 44.1 °F 40.8 °F 37.9 °F 79% 29.97 in 10.0 mi South 5.8 mph - N/A   Clear